Regional Weather Roundup
Issued by NWS

Home | Current Version | Previous Version | Graphics & Text | Print | Product List | Glossary On
Versions: 1 2 3 4 5 6 7 8 9 10 11 12 13 14 15 16 17 18 19 20 21 22 23 24 25 26 27
000
ASUS45 KBOU 101707
RWRCO

WEATHER ROUNDUP FOR COLORADO
NATIONAL WEATHER SERVICE DENVER/BOULDER CO
1000 AM MST SAT DEC 10 2016

NOTE: "FAIR" INDICATES FEW OR NO CLOUDS BELOW 12000 FEET WITH NO
SIGNIFICANT WEATHER AND/OR OBSTRUCTIONS TO VISIBILITY.

COZ001>005-013-030-031-101800-
...NORTHWEST COLORADO...

CITY           SKY/WX    TMP DP  RH WIND       PRES   REMARKS
CRAIG          CLOUDY    43  26  51 SW18G25   29.98S
HAYDEN         FAIR      30  21  69 E6        29.98S WCI  24
MEEKER         FAIR      42  27  55 W9        30.00S
MOUNT WERNER   NOT AVBL
STEAMBOAT SPGS CLOUDY    24  23  93 CALM      29.98S
WALDEN           N/A     36  21  55 S5        29.98S
$$

COZ006>008-011-101800-
...WEST CENTRAL VALLEYS...

CITY           SKY/WX    TMP DP  RH WIND       PRES   REMARKS
GRAND JUNCTION FAIR      30  23  75 SW5       30.11F WCI  25
MONTROSE       FAIR      33  26  75 SE5       30.13F WCI  29
EAGLE          MOSUNNY   30  25  80 NE7       30.06F WCI  23
RIFLE          FAIR      26  22  84 CALM      30.11F
DELTA          NOT AVBL
NUCLA          FAIR      34  25  69 CALM      30.17F
$$

COZ017>023-064>068-101800-
...SOUTHWEST COLORADO...

CITY           SKY/WX    TMP DP  RH WIND       PRES   REMARKS
DURANGO        FAIR      36  22  56 CALM      30.22S
CORTEZ         FAIR      41  30  65 CALM      30.19R
PAGOSA SPRINGS FAIR      33  21  60 S5        30.24S WCI  29
TELLURIDE      PTSUNNY  N/A N/A N/A CALM      30.20
WOLF CREEK PAS FAIR      25  18  74 SW15G28   30.30R WCI  12
$$

COZ009-010-012-014-032>034-037-058>063-101800-
...CENTRAL COLORADO...

CITY           SKY/WX    TMP DP  RH WIND       PRES   REMARKS
ASPEN          PTSUNNY   36  26  67 E6        30.04F
BUENA VISTA    FAIR      47  13  24 S7        30.04R
COPPER MTN     NOT AVBL
BERTHOUD PASS  CLOUDY    23  10  58 W32       30.03R HAZE    WCI   5
COTTONWOOD PAS FAIR      37  14  38 W14G31    30.05S
GUNNISON       CLOUDY    13  11  92 CALM      30.21F FOG
KREMMLING      CLOUDY    45  25  45 SW15G23   29.99S
LEADVILLE      FAIR      38  11  32 W18G32    30.05S
MONARCH PASS   FAIR      23  18  80 SW33G43   30.26S WCI   5
SALIDA         FAIR      46  17  31 SW14G24   30.12S
SUNLIGHT       CLOUDY    27  21  80 SW25G38   30.11S WCI  11
WILKERSON PASS FAIR      32  14  47 SW14G24   30.12R WCI  22
$$

COZ069>075-101800-
...SAN LUIS VALLEY/SANGRE DE CRISTO MOUNTAINS...

CITY           SKY/WX    TMP DP  RH WIND       PRES   REMARKS
ALAMOSA        FAIR      26  19  74 E3        30.16F
LA VETA PASS   FAIR      34  21  60 NE35G46   30.09R WCI  19
SAGUACHE       FAIR      32  19  59 CALM      30.19S
$$

COZ035-036-038>040-101800-
...NORTHERN COLORADO FRONT RANGE...

CITY           SKY/WX    TMP DP  RH WIND       PRES   REMARKS
DENVER INTL AP PTSUNNY   34  25  69 SE3       29.85F
DMNS CITY PARK   N/A     31  23  72 N1        29.85F
AURORA         PTSUNNY   37  27  67 N7        29.86F
FRONT RANGE AP PTSUNNY   37  28  70 E7        29.87
ERIE MUNI ARPT FAIR      28  23  82 SE3       29.84F
BOULDER MUN AP FAIR      28  21  74 CALM      29.84R
CENTENNIAL     PTSUNNY   51  22  31 S7        29.85F
BROOMFIELD     PTSUNNY   34  25  69 E12       29.84F WCI  25
FORT COLLINS   FAIR      21  19  93 N7        29.87S WCI  13
LONGMONT       NOT AVBL
$$

COZ041-046-047-076>085-087-088-101800-
...PIKES PEAK/PALMER DIVIDE AND SOUTHERN FOOTHILLS...

CITY           SKY/WX    TMP DP  RH WIND       PRES   REMARKS
COLO. SPRINGS  PTSUNNY   43  23  45 E10       29.92F
A. F. ACADEMY  FAIR      38  21  50 S8        29.90F
SCHRIEVER AFB  NOT AVBL
ELLICOTT       FAIR     N/A N/A N/A MISG      29.92R
FALCON         FAIR      44  20  38 SE5       29.94F
FORT CARSON    FAIR      38  22  52 N6        29.90F
LIMON          FAIR      44  24  45 SE3       29.90S
MONUMENT HILL  FAIR      48  16  27 SW9       29.93S
TRINIDAD       FAIR      54  18  24 SW9       29.98F
$$

COZ042>045-048>051-090-091-101800-
...NORTHEAST COLORADO...

CITY           SKY/WX    TMP DP  RH WIND       PRES   REMARKS
GREELEY ARPT   FAIR      22  17  81 CALM      29.89F
AKRON          FAIR      28  21  75 CALM      29.88S
BURLINGTON     FAIR      34  23  64 S8        29.92F WCI  27
WRAY           NOT AVBL
STERLING       FAIR      21  18  86 SW6       29.90F WCI  14
HOLYOKE        FAIR      27  21  80 SE7       29.93F WCI  19
FORT MORGAN    FAIR      25  19  78 W5        29.89F WCI  19
$$

COZ086-089-092>099-101800-
...SOUTHEAST COLORADO...

CITY           SKY/WX    TMP DP  RH WIND       PRES   REMARKS
PUEBLO         FAIR      34  19  54 CALM      29.94S
LA JUNTA       FAIR      30  17  58 S5        29.94F WCI  25
LAMAR          FAIR      30  19  63 CALM      29.96F
SPRINGFIELD      N/A     52  27  38 S6        29.94F
$$




USA.gov is the U.S. government's official web portal to all federal, state and local government web resources and services.